GFSSW_500_temp_000.txt.gz
Temp
-10 -10 -10 -11 -11 -11 -11 -11 -11 -12 -12 -11 -11 -11 -11 -11 -11 -11 -11 -11 -11 -11 -11 -11 -11 -11 -11 -11 -11 -11 -10 -9 -10 -11 -11 -11 -11 -11 -12 -11 -11 -11 -11 -10 -10
-10 -10 -10 -10 -10 -11 -11 -11 -11 -11 -10 -11 -12 -12 -12 -12 -11 -11 -12 -12 -12 -11 -11 -11 -11 -11 -11 -11 -11 -11 -11 -9 -11 -11 -11 -11 -11 -10 -11 -11 -12 -12 -12 -11 -11
-10 -10 -10 -10 -10 -11 -11 -11 -11 -11 -11 -11 -11 -12 -12 -12 -12 -12 -12 -12 -12 -11 -11 -11 -11 -11 -11 -11 -11 -11 -10 -10 -10 -11 -11 -11 -10 -11 -11 -10 -10 -10 -10 -10 -10
-10 -10 -10 -10 -10 -11 -10 -10 -10 -11 -10 -11 -11 -11 -11 -11 -10 -11 -12 -12 -12 -12 -12 -12 -12 -11 -11 -11 -12 -11 -11 -10 -10 -11 -11 -11 -11 -10 -11 -10 -10 -10 -10 -10 -11
-9 -10 -10 -11 -11 -11 -11 -11 -11 -11 -11 -10 -11 -11 -11 -9 -8 -11 -12 -12 -12 -12 -12 -12 -12 -12 -11 -12 -12 -11 -11 -11 -10 -10 -11 -11 -10 -10 -9 -10 -10 -11 -10 -11 -11
-9 -9 -9 -10 -10 -11 -10 -10 -11 -11 -11 -10 -10 -10 -10 -8 -10 -12 -12 -12 -12 -13 -13 -12 -12 -12 -12 -12 -11 -11 -11 -9 -10 -9 -9 -10 -10 -10 -10 -11 -11 -11 -11 -11 -11
-9 -9 -9 -9 -10 -10 -11 -11 -11 -11 -11 -11 -11 -10 -9 -8 -11 -11 -12 -12 -13 -12 -12 -12 -12 -12 -12 -12 -11 -11 -10 -9 -9 -9 -9 -11 -8 -9 -11 -11 -11 -12 -12 -12 -11
-9 -9 -9 -10 -9 -9 -10 -10 -10 -11 -11 -11 -10 -10 -8 -10 -10 -11 -12 -12 -12 -12 -12 -12 -12 -12 -12 -12 -11 -11 -9 -7 -9 -10 -10 -11 -8 -10 -11 -11 -11 -12 -13 -12 -11
-9 -9 -9 -9 -10 -10 -10 -10 -10 -10 -11 -11 -10 -10 -8 -10 -11 -12 -12 -11 -13 -13 -13 -13 -13 -12 -13 -11 -11 -10 -8 -9 -9 -11 -10 -11 -10 -10 -11 -10 -11 -12 -12 -12 -11
-10 -9 -9 -9 -9 -10 -10 -10 -10 -10 -10 -10 -10 -10 -9 -10 -11 -12 -11 -11 -12 -13 -12 -12 -13 -12 -12 -11 -9 -9 -10 -10 -9 -11 -11 -11 -10 -10 -11 -12 -11 -11 -12 -12 -10
-10 -11 -11 -10 -10 -10 -10 -11 -11 -11 -10 -10 -10 -10 -10 -10 -11 -11 -11 -12 -12 -12 -12 -12 -12 -10 -10 -11 -11 -11 -10 -9 -10 -10 -10 -9 -9 -10 -12 -12 -11 -11 -12 -11 -11
-12 -12 -12 -12 -12 -11 -11 -11 -11 -11 -10 -10 -9 -9 -10 -11 -10 -11 -11 -11 -11 -11 -12 -11 -9 -10 -12 -12 -11 -11 -10 -9 -10 -11 -11 -10 -9 -10 -12 -12 -12 -11 -11 -11 -11
-16 -15 -15 -14 -14 -13 -13 -13 -12 -11 -10 -10 -10 -9 -10 -11 -10 -11 -11 -11 -11 -12 -11 -11 -11 -12 -12 -11 -11 -10 -10 -10 -10 -11 -11 -11 -9 -11 -11 -11 -11 -11 -11 -11 -12
-21 -21 -21 -20 -18 -16 -16 -14 -13 -12 -11 -10 -11 -10 -10 -12 -10 -11 -10 -11 -11 -11 -11 -10 -11 -12 -12 -10 -10 -9 -10 -10 -11 -11 -11 -12 -10 -11 -11 -11 -11 -11 -10 -11 -12
-23 -23 -23 -23 -23 -21 -20 -19 -16 -13 -12 -12 -12 -11 -11 -11 -10 -11 -12 -11 -11 -11 -11 -9 -9 -10 -10 -10 -10 -9 -10 -11 -11 -12 -12 -12 -11 -10 -11 -10 -9 -9 -11 -11 -12
-23 -22 -22 -22 -23 -22 -22 -22 -21 -17 -13 -14 -13 -12 -12 -12 -11 -12 -12 -12 -11 -12 -11 -10 -11 -11 -10 -10 -11 -10 -11 -12 -12 -11 -11 -11 -11 -10 -11 -10 -9 -10 -10 -11 -12
-24 -24 -24 -23 -23 -23 -23 -22 -22 -19 -16 -17 -15 -13 -12 -11 -12 -13 -12 -12 -11 -10 -10 -10 -10 -10 -10 -10 -11 -11 -11 -12 -12 -11 -8 -11 -11 -11 -11 -10 -10 -9 -11 -12 -11
-24 -24 -24 -24 -24 -24 -24 -24 -23 -20 -19 -19 -16 -15 -14 -14 -14 -14 -14 -12 -11 -11 -11 -10 -10 -10 -9 -9 -10 -10 -12 -11 -10 -10 -10 -12 -11 -11 -11 -10 -10 -10 -11 -12 -12
-24 -24 -24 -24 -24 -25 -25 -24 -23 -22 -22 -20 -19 -17 -16 -15 -15 -15 -13 -12 -11 -11 -10 -10 -10 -11 -10 -11 -10 -11 -10 -10 -10 -12 -12 -11 -11 -11 -10 -10 -10 -11 -12 -12 -11
-24 -24 -24 -24 -24 -24 -24 -24 -24 -24 -24 -22 -19 -18 -18 -16 -15 -15 -12 -12 -12 -11 -11 -11 -10 -11 -11 -11 -11 -10 -11 -11 -12 -12 -11 -11 -11 -10 -10 -10 -10 -11 -12 -11 -11
-24 -25 -25 -26 -26 -26 -25 -25 -24 -25 -25 -24 -20 -19 -18 -17 -16 -15 -11 -13 -13 -13 -12 -12 -11 -11 -12 -9 -9 -10 -11 -12 -12 -11 -11 -11 -10 -11 -12 -11 -11 -11 -11 -10 -10
-25 -26 -26 -26 -26 -26 -25 -25 -25 -25 -25 -23 -22 -21 -19 -18 -16 -15 -12 -14 -13 -13 -13 -12 -12 -12 -10 -10 -11 -11 -11 -10 -10 -10 -11 -11 -9 -11 -11 -11 -12 -11 -11 -11 -11
-26 -26 -26 -26 -26 -26 -26 -26 -25 -25 -25 -24 -22 -23 -20 -17 -17 -14 -14 -14 -12 -12 -12 -13 -13 -12 -11 -11 -11 -11 -11 -11 -10 -12 -11 -11 -10 -10 -10 -10 -11 -11 -11 -12 -10
-26 -26 -26 -26 -26 -26 -26 -26 -26 -25 -25 -24 -23 -23 -22 -18 -17 -16 -16 -14 -14 -13 -12 -12 -12 -12 -11 -10 -11 -10 -11 -11 -11 -11 -10 -10 -10 -10 -9 -10 -11 -11 -11 -11 -11
-26 -26 -26 -26 -26 -26 -26 -26 -26 -26 -25 -25 -24 -24 -24 -21 -19 -16 -17 -16 -15 -14 -13 -12 -11 -11 -11 -11 -11 -11 -10 -10 -10 -10 -10 -10 -10 -10 -10 -11 -11 -11 -10 -11 -11
-27 -27 -27 -27 -26 -27 -26 -26 -26 -26 -25 -25 -25 -25 -23 -22 -19 -17 -16 -17 -16 -15 -14 -12 -11 -11 -11 -12 -12 -11 -11 -11 -11 -10 -10 -10 -10 -11 -11 -11 -11 -10 -10 -10 -10
-27 -27 -27 -27 -27 -27 -26 -26 -26 -26 -26 -26 -25 -25 -24 -23 -20 -18 -16 -16 -16 -16 -15 -12 -12 -12 -11 -12 -12 -12 -12 -11 -12 -11 -11 -10 -9 -11 -10 -10 -11 -10 -10 -10 -10

GFSSW_500_temp_003.txt.gz
Temp
-10 -10 -10 -10 -10 -11 -11 -11 -11 -11 -12 -12 -11 -12 -11 -11 -11 -11 -10 -12 -12 -11 -11 -12 -12 -12 -11 -11 -11 -10 -10 -10 -10 -10 -11 -10 -10 -11 -11 -11 -11 -11 -11 -11 -12
-11 -10 -10 -10 -10 -10 -10 -10 -11 -11 -11 -11 -12 -12 -12 -11 -11 -10 -11 -12 -11 -11 -12 -12 -12 -12 -11 -12 -11 -10 -10 -10 -11 -11 -10 -11 -11 -11 -11 -11 -11 -11 -12 -11 -11
-11 -11 -10 -10 -10 -10 -10 -10 -10 -11 -11 -11 -11 -12 -12 -11 -10 -10 -12 -12 -12 -12 -12 -12 -12 -12 -11 -11 -11 -11 -11 -11 -10 -10 -11 -11 -11 -11 -10 -10 -11 -11 -11 -11 -11
-10 -10 -10 -11 -11 -10 -10 -10 -10 -11 -11 -11 -11 -11 -11 -11 -10 -11 -12 -13 -13 -13 -13 -13 -12 -12 -12 -11 -11 -11 -11 -11 -10 -11 -10 -10 -12 -10 -10 -10 -11 -11 -10 -10 -11
-9 -9 -10 -10 -10 -10 -10 -10 -10 -10 -11 -11 -11 -11 -11 -10 -9 -12 -12 -13 -13 -13 -13 -13 -12 -12 -12 -12 -12 -11 -11 -11 -11 -10 -10 -11 -11 -10 -9 -11 -11 -10 -10 -11 -11
-9 -9 -9 -9 -9 -10 -10 -10 -10 -10 -10 -11 -11 -11 -10 -9 -10 -12 -12 -12 -13 -13 -13 -13 -13 -12 -12 -12 -12 -12 -11 -11 -10 -9 -10 -11 -10 -9 -9 -11 -10 -9 -10 -12 -11
-9 -9 -9 -9 -9 -9 -10 -10 -11 -11 -10 -10 -10 -11 -10 -9 -11 -11 -11 -11 -12 -12 -12 -13 -13 -13 -12 -12 -12 -12 -12 -11 -9 -10 -10 -11 -9 -9 -10 -10 -9 -9 -11 -12 -11
-9 -9 -9 -9 -10 -10 -9 -10 -10 -11 -11 -10 -10 -10 -8 -11 -11 -11 -11 -12 -12 -11 -12 -12 -13 -13 -11 -12 -12 -12 -12 -9 -9 -10 -10 -12 -7 -10 -10 -9 -9 -10 -11 -11 -12
-9 -9 -9 -9 -10 -10 -10 -10 -10 -10 -11 -11 -11 -10 -8 -10 -10 -12 -13 -12 -13 -12 -12 -13 -13 -12 -12 -12 -12 -12 -9 -9 -10 -10 -11 -11 -8 -9 -9 -10 -10 -11 -12 -12 -11
-10 -10 -10 -10 -10 -11 -11 -11 -10 -10 -10 -10 -10 -10 -9 -10 -11 -12 -12 -12 -12 -12 -12 -12 -12 -11 -11 -11 -10 -10 -10 -11 -10 -10 -12 -10 -8 -9 -9 -10 -10 -11 -12 -11 -11
-8 -8 -10 -11 -11 -11 -11 -12 -11 -11 -10 -10 -10 -10 -10 -10 -10 -11 -12 -12 -12 -12 -12 -12 -12 -9 -10 -10 -11 -11 -11 -11 -10 -11 -11 -10 -9 -9 -10 -9 -10 -10 -11 -11 -11
-8 -10 -11 -14 -15 -14 -14 -13 -12 -12 -11 -11 -10 -10 -11 -11 -10 -11 -11 -11 -11 -11 -12 -12 -9 -11 -12 -12 -12 -12 -11 -11 -10 -11 -11 -10 -10 -10 -10 -10 -10 -10 -10 -11 -11
-16 -18 -19 -20 -20 -19 -19 -16 -15 -13 -12 -12 -11 -10 -11 -11 -11 -11 -11 -11 -11 -12 -11 -11 -11 -12 -12 -12 -12 -11 -11 -11 -10 -11 -12 -10 -9 -10 -10 -10 -10 -10 -11 -11 -11
-20 -22 -23 -23 -23 -23 -22 -22 -21 -17 -14 -12 -13 -12 -12 -12 -11 -12 -11 -12 -11 -11 -12 -11 -12 -12 -12 -11 -12 -11 -12 -12 -11 -11 -11 -11 -10 -10 -11 -10 -10 -10 -10 -10 -11
-22 -23 -23 -23 -23 -23 -23 -23 -23 -22 -17 -16 -14 -13 -13 -12 -11 -12 -13 -12 -11 -12 -12 -9 -11 -11 -11 -11 -13 -11 -13 -12 -11 -11 -11 -11 -10 -8 -11 -10 -11 -10 -10 -11 -11
-23 -23 -24 -24 -23 -23 -23 -23 -23 -24 -20 -20 -18 -15 -13 -13 -12 -12 -13 -13 -12 -12 -12 -11 -11 -12 -12 -12 -13 -13 -13 -12 -11 -11 -10 -10 -11 -9 -11 -11 -10 -10 -11 -11 -11
-24 -24 -24 -24 -24 -24 -24 -24 -24 -23 -22 -22 -18 -17 -15 -13 -12 -12 -13 -13 -11 -11 -11 -11 -11 -10 -11 -11 -12 -13 -12 -11 -11 -10 -9 -10 -12 -10 -10 -10 -10 -11 -11 -10 -11
-24 -24 -24 -24 -24 -24 -25 -25 -24 -23 -23 -22 -21 -20 -17 -15 -14 -13 -13 -12 -12 -11 -12 -11 -11 -10 -10 -10 -10 -10 -11 -10 -10 -10 -9 -10 -11 -10 -10 -9 -11 -11 -11 -11 -12
-24 -24 -24 -24 -24 -24 -25 -26 -25 -25 -24 -23 -22 -21 -20 -17 -16 -14 -12 -12 -12 -12 -12 -12 -11 -11 -11 -11 -11 -10 -10 -11 -11 -10 -10 -11 -10 -10 -9 -10 -11 -11 -11 -11 -12
-24 -24 -25 -25 -25 -25 -25 -26 -26 -25 -25 -25 -23 -22 -20 -19 -17 -14 -13 -13 -13 -13 -13 -13 -12 -12 -12 -12 -11 -11 -11 -11 -10 -10 -11 -9 -9 -9 -10 -10 -11 -11 -11 -12 -13
-24 -25 -26 -26 -26 -26 -26 -26 -26 -25 -25 -25 -24 -22 -20 -19 -17 -15 -14 -13 -13 -14 -13 -14 -13 -12 -12 -10 -11 -11 -11 -11 -11 -10 -10 -9 -9 -10 -10 -10 -10 -11 -12 -13 -12
-25 -26 -26 -26 -26 -26 -26 -26 -26 -26 -25 -25 -24 -22 -21 -19 -18 -17 -17 -15 -14 -14 -14 -13 -13 -13 -11 -11 -11 -11 -11 -10 -10 -9 -10 -9 -9 -10 -10 -10 -10 -11 -13 -12 -11
-26 -26 -27 -27 -26 -26 -26 -26 -26 -26 -25 -25 -24 -22 -22 -19 -18 -18 -18 -17 -15 -13 -13 -13 -12 -12 -13 -12 -12 -10 -10 -10 -11 -11 -10 -10 -10 -10 -9 -10 -10 -11 -13 -11 -11
-27 -27 -27 -27 -27 -27 -27 -27 -26 -26 -26 -25 -25 -24 -23 -20 -18 -18 -19 -18 -15 -14 -13 -12 -11 -11 -11 -10 -10 -10 -10 -10 -11 -11 -10 -9 -10 -11 -11 -10 -10 -12 -12 -12 -11
-27 -27 -27 -27 -27 -27 -27 -26 -26 -26 -26 -25 -25 -25 -24 -22 -19 -18 -18 -18 -17 -15 -13 -12 -11 -11 -11 -11 -11 -10 -10 -10 -9 -9 -10 -9 -10 -11 -10 -10 -11 -12 -11 -12 -11
-26 -26 -27 -26 -26 -26 -27 -27 -27 -27 -26 -26 -25 -25 -25 -24 -21 -19 -18 -18 -18 -16 -13 -12 -11 -11 -11 -11 -11 -11 -11 -11 -11 -10 -11 -11 -11 -11 -11 -10 -10 -11 -11 -12 -11
-26 -26 -26 -27 -27 -27 -27 -26 -26 -26 -26 -26 -26 -25 -25 -24 -22 -20 -18 -18 -17 -17 -14 -12 -12 -11 -11 -12 -11 -11 -11 -11 -11 -11 -11 -10 -10 -11 -11 -10 -10 -11 -11 -11 -11

GFSSW_500_temp_006.txt.gz
Temp
-10 -10 -9 -10 -10 -11 -11 -11 -10 -10 -10 -10 -10 -11 -12 -11 -12 -12 -11 -12 -12 -10 -10 -11 -11 -12 -11 -11 -11 -11 -10 -9 -9 -10 -10 -11 -11 -11 -11 -11 -11 -11 -12 -12 -11
-11 -11 -11 -10 -10 -10 -11 -11 -10 -10 -10 -10 -11 -11 -11 -11 -11 -11 -12 -12 -12 -11 -11 -11 -12 -12 -11 -11 -11 -11 -10 -10 -10 -11 -10 -11 -10 -11 -10 -10 -10 -11 -12 -12 -12
-11 -11 -11 -11 -10 -10 -10 -10 -11 -11 -11 -11 -10 -10 -10 -10 -10 -10 -12 -13 -12 -12 -12 -12 -12 -11 -11 -11 -11 -10 -10 -11 -11 -11 -11 -10 -10 -11 -10 -10 -11 -11 -11 -12 -11
-10 -10 -10 -10 -10 -10 -10 -10 -10 -10 -10 -11 -11 -11 -11 -10 -9 -10 -12 -12 -13 -13 -12 -12 -12 -12 -11 -11 -12 -11 -11 -11 -11 -12 -11 -10 -9 -10 -11 -10 -11 -10 -12 -12 -11
-10 -10 -10 -10 -10 -10 -10 -10 -10 -10 -10 -10 -10 -10 -11 -10 -9 -11 -12 -12 -13 -13 -13 -12 -12 -13 -13 -12 -12 -11 -11 -11 -12 -12 -11 -10 -10 -11 -9 -11 -11 -11 -12 -11 -12
-10 -10 -10 -10 -9 -10 -10 -10 -10 -10 -10 -10 -10 -10 -10 -8 -10 -12 -11 -12 -12 -13 -13 -13 -13 -13 -12 -12 -12 -11 -12 -11 -11 -11 -10 -10 -11 -11 -10 -11 -11 -11 -11 -11 -11
-9 -9 -9 -9 -10 -10 -10 -10 -10 -10 -10 -10 -10 -10 -9 -8 -11 -11 -11 -12 -12 -12 -13 -13 -13 -13 -12 -12 -12 -12 -11 -11 -11 -11 -9 -11 -10 -9 -11 -11 -10 -10 -10 -11 -10
-10 -10 -9 -9 -9 -9 -9 -10 -10 -10 -10 -10 -10 -10 -8 -9 -11 -11 -12 -12 -12 -13 -12 -13 -13 -13 -12 -12 -12 -12 -11 -11 -11 -10 -10 -11 -9 -10 -10 -10 -9 -10 -10 -10 -9
-9 -9 -9 -9 -9 -9 -9 -9 -9 -10 -10 -10 -10 -10 -8 -9 -11 -12 -12 -12 -13 -13 -12 -13 -13 -12 -12 -12 -12 -11 -10 -10 -10 -11 -11 -11 -11 -10 -10 -10 -9 -9 -9 -10 -10
-8 -8 -8 -8 -8 -9 -9 -10 -10 -10 -9 -10 -10 -10 -9 -10 -10 -11 -12 -12 -13 -13 -13 -12 -12 -11 -10 -10 -8 -10 -10 -10 -10 -11 -11 -12 -11 -11 -11 -10 -10 -10 -10 -10 -9
-8 -8 -8 -8 -8 -8 -8 -9 -9 -10 -10 -11 -10 -10 -10 -11 -10 -11 -12 -12 -13 -13 -12 -12 -12 -9 -10 -10 -10 -11 -12 -11 -11 -11 -12 -12 -11 -11 -10 -11 -10 -10 -10 -10 -10
-8 -8 -8 -9 -10 -12 -13 -13 -13 -11 -11 -12 -12 -11 -11 -11 -10 -11 -11 -12 -12 -12 -13 -12 -10 -10 -11 -11 -12 -12 -12 -11 -11 -11 -12 -12 -11 -11 -10 -11 -11 -11 -11 -10 -10
-9 -11 -14 -16 -17 -18 -18 -18 -18 -17 -15 -13 -14 -12 -12 -12 -10 -12 -13 -12 -12 -13 -12 -12 -10 -12 -12 -12 -12 -12 -12 -11 -11 -12 -12 -12 -11 -11 -10 -11 -11 -11 -11 -10 -9
-15 -18 -19 -19 -20 -20 -21 -22 -22 -22 -21 -18 -17 -16 -14 -12 -11 -13 -13 -13 -13 -12 -12 -12 -12 -12 -12 -12 -12 -12 -12 -13 -13 -13 -12 -13 -10 -10 -10 -10 -11 -11 -11 -10 -10
-20 -20 -21 -21 -22 -23 -23 -23 -23 -23 -23 -22 -21 -18 -17 -15 -13 -13 -13 -14 -12 -12 -13 -10 -11 -11 -11 -11 -13 -12 -14 -12 -13 -12 -12 -12 -11 -8 -10 -10 -10 -12 -10 -10 -10
-21 -21 -22 -23 -24 -24 -24 -24 -24 -24 -23 -23 -22 -21 -19 -17 -14 -13 -13 -14 -14 -13 -12 -12 -12 -12 -11 -12 -12 -13 -13 -13 -13 -12 -9 -10 -11 -8 -10 -11 -11 -10 -11 -11 -10
-22 -22 -23 -24 -24 -24 -25 -24 -25 -24 -24 -23 -24 -23 -23 -19 -17 -15 -15 -13 -12 -12 -11 -11 -12 -11 -12 -12 -12 -12 -13 -13 -12 -12 -11 -11 -10 -9 -11 -10 -10 -11 -11 -10 -11
-23 -23 -24 -24 -24 -24 -25 -25 -25 -24 -25 -25 -24 -24 -22 -22 -19 -17 -15 -13 -13 -13 -13 -12 -12 -11 -11 -11 -11 -11 -12 -12 -12 -12 -11 -10 -10 -10 -11 -11 -11 -11 -11 -11 -10
-24 -24 -24 -24 -25 -25 -25 -25 -25 -26 -26 -25 -24 -24 -24 -22 -21 -18 -16 -16 -14 -13 -13 -13 -12 -13 -12 -12 -12 -11 -11 -12 -12 -12 -11 -10 -10 -10 -11 -10 -11 -11 -11 -11 -11
-24 -25 -25 -26 -26 -26 -26 -26 -26 -27 -26 -25 -24 -24 -23 -21 -21 -20 -19 -16 -15 -14 -13 -13 -13 -13 -12 -12 -12 -12 -12 -12 -11 -10 -10 -10 -9 -10 -11 -10 -11 -12 -12 -11 -11
-25 -26 -26 -26 -26 -26 -27 -26 -26 -26 -26 -25 -25 -24 -22 -21 -21 -21 -20 -18 -15 -14 -13 -13 -13 -13 -13 -11 -11 -11 -12 -11 -12 -11 -10 -10 -9 -10 -11 -11 -11 -12 -12 -12 -11
-26 -26 -27 -27 -27 -26 -26 -26 -26 -26 -26 -25 -25 -24 -23 -22 -21 -21 -20 -19 -17 -15 -14 -14 -13 -13 -12 -12 -12 -12 -12 -11 -10 -10 -10 -10 -10 -10 -11 -11 -12 -12 -12 -12 -12
-26 -26 -27 -27 -27 -27 -27 -27 -27 -27 -26 -26 -25 -25 -23 -23 -21 -20 -20 -19 -19 -16 -14 -13 -13 -13 -12 -12 -12 -11 -11 -10 -11 -11 -10 -10 -10 -11 -12 -11 -12 -12 -12 -12 -12
-26 -26 -26 -27 -27 -27 -27 -27 -27 -27 -26 -26 -26 -25 -25 -24 -22 -20 -19 -19 -19 -17 -15 -13 -12 -12 -11 -10 -10 -10 -11 -11 -11 -10 -10 -9 -11 -11 -11 -10 -12 -12 -11 -12 -11
-26 -26 -26 -26 -27 -27 -27 -27 -27 -27 -27 -26 -26 -25 -25 -25 -24 -21 -20 -19 -19 -18 -15 -13 -12 -12 -11 -11 -11 -11 -11 -11 -11 -10 -10 -10 -11 -12 -11 -11 -12 -12 -11 -12 -10
-26 -26 -26 -26 -27 -27 -26 -26 -26 -27 -26 -26 -26 -25 -25 -24 -24 -23 -20 -19 -19 -19 -15 -14 -13 -12 -12 -12 -11 -11 -11 -11 -11 -11 -10 -11 -11 -12 -12 -11 -13 -12 -12 -12 -11
-25 -26 -26 -26 -26 -26 -26 -26 -26 -26 -26 -26 -26 -26 -25 -25 -24 -24 -21 -18 -19 -19 -17 -14 -13 -12 -12 -13 -12 -12 -11 -11 -11 -11 -11 -10 -11 -12 -12 -11 -13 -12 -11 -11 -11

GFSSW_500_temp_009.txt.gz
Temp
-10 -10 -9 -9 -10 -10 -10 -11 -10 -10 -10 -10 -10 -11 -12 -12 -12 -12 -12 -12 -12 -12 -11 -11 -11 -11 -11 -11 -11 -11 -10 -9 -9 -10 -10 -10 -11 -11 -10 -10 -11 -11 -11 -12 -12
-11 -11 -11 -11 -10 -10 -11 -11 -11 -11 -10 -11 -11 -11 -10 -11 -12 -12 -12 -12 -12 -11 -11 -11 -11 -12 -11 -11 -11 -10 -10 -9 -10 -11 -11 -11 -11 -10 -10 -10 -10 -11 -12 -12 -11
-10 -10 -10 -11 -11 -11 -10 -11 -11 -12 -12 -11 -10 -10 -10 -10 -11 -12 -12 -12 -12 -11 -11 -12 -12 -11 -11 -11 -11 -10 -9 -10 -10 -11 -11 -11 -10 -11 -10 -10 -10 -11 -12 -12 -12
-10 -10 -10 -10 -10 -10 -10 -10 -11 -11 -11 -11 -11 -11 -11 -10 -10 -10 -11 -12 -12 -12 -12 -12 -12 -12 -12 -11 -11 -11 -10 -11 -10 -11 -11 -11 -11 -9 -11 -10 -11 -12 -12 -11 -11
-10 -10 -10 -10 -10 -10 -10 -10 -10 -10 -10 -10 -10 -11 -11 -11 -10 -11 -10 -11 -12 -12 -12 -13 -13 -13 -12 -12 -12 -10 -10 -11 -11 -11 -12 -11 -10 -9 -10 -10 -12 -12 -12 -11 -10
-10 -10 -10 -10 -10 -10 -10 -10 -10 -10 -10 -10 -10 -10 -10 -10 -11 -11 -11 -11 -12 -12 -13 -13 -13 -13 -13 -12 -12 -11 -10 -11 -11 -11 -12 -11 -10 -10 -10 -11 -12 -12 -11 -11 -10
-10 -9 -9 -9 -9 -9 -9 -9 -9 -10 -10 -10 -10 -10 -9 -9 -11 -11 -11 -11 -11 -12 -12 -13 -13 -13 -12 -12 -12 -12 -11 -11 -11 -11 -11 -12 -9 -10 -11 -11 -11 -11 -11 -11 -10
-10 -10 -9 -9 -9 -9 -9 -9 -9 -9 -9 -9 -10 -10 -8 -9 -10 -11 -12 -12 -12 -12 -12 -13 -13 -13 -13 -12 -12 -12 -11 -11 -10 -11 -11 -12 -8 -10 -11 -11 -12 -11 -11 -10 -10
-10 -9 -9 -9 -9 -9 -9 -9 -9 -9 -9 -9 -9 -9 -9 -9 -10 -11 -11 -11 -13 -12 -12 -13 -13 -13 -13 -12 -12 -11 -10 -10 -11 -10 -12 -12 -10 -10 -11 -11 -12 -12 -11 -10 -10
-9 -9 -9 -9 -9 -9 -9 -8 -9 -9 -9 -9 -9 -9 -9 -9 -10 -11 -11 -11 -12 -12 -12 -12 -12 -12 -11 -11 -8 -9 -10 -10 -10 -11 -12 -12 -10 -11 -11 -11 -12 -12 -11 -10 -11
-9 -9 -9 -9 -9 -9 -9 -9 -9 -8 -8 -9 -9 -9 -9 -10 -9 -10 -11 -11 -12 -12 -11 -12 -13 -10 -10 -11 -11 -12 -11 -11 -11 -11 -12 -12 -12 -11 -11 -11 -12 -11 -10 -11 -11
-10 -9 -9 -9 -9 -9 -9 -10 -11 -10 -10 -11 -11 -9 -10 -11 -9 -10 -10 -12 -12 -12 -13 -12 -10 -10 -12 -12 -12 -12 -12 -11 -11 -12 -12 -12 -11 -11 -11 -11 -12 -11 -10 -11 -11
-10 -10 -10 -11 -12 -13 -15 -17 -16 -17 -14 -16 -15 -13 -12 -11 -10 -12 -11 -12 -12 -13 -12 -11 -8 -12 -13 -12 -12 -12 -11 -12 -13 -13 -13 -13 -11 -11 -11 -11 -11 -11 -10 -11 -11
-12 -13 -15 -18 -19 -19 -20 -20 -20 -20 -19 -19 -19 -18 -17 -14 -13 -13 -12 -12 -12 -12 -13 -12 -12 -11 -13 -12 -12 -12 -13 -13 -13 -13 -12 -13 -11 -10 -10 -11 -11 -11 -11 -11 -11
-17 -19 -20 -21 -21 -21 -22 -22 -22 -22 -21 -21 -21 -20 -19 -18 -17 -15 -15 -15 -13 -12 -13 -10 -11 -11 -11 -12 -12 -12 -13 -13 -13 -13 -12 -11 -11 -8 -10 -11 -10 -11 -11 -12 -10
-21 -21 -22 -22 -23 -22 -23 -23 -23 -24 -22 -23 -23 -23 -22 -21 -21 -18 -17 -17 -15 -14 -13 -13 -12 -12 -11 -12 -13 -12 -12 -12 -13 -13 -11 -11 -10 -8 -10 -10 -11 -11 -11 -10 -10
-22 -22 -23 -23 -23 -23 -24 -24 -24 -24 -24 -24 -24 -24 -24 -23 -23 -21 -19 -18 -16 -15 -13 -13 -12 -12 -12 -12 -13 -12 -12 -13 -12 -13 -10 -11 -11 -10 -10 -10 -10 -10 -10 -10 -10
-23 -23 -24 -24 -24 -25 -25 -25 -25 -25 -25 -25 -24 -25 -25 -23 -23 -23 -21 -20 -18 -16 -15 -13 -13 -12 -11 -11 -11 -12 -12 -12 -12 -12 -12 -11 -10 -10 -11 -11 -10 -10 -11 -10 -10
-24 -25 -25 -25 -26 -26 -26 -26 -26 -26 -26 -25 -26 -25 -25 -24 -23 -22 -22 -20 -19 -18 -16 -14 -13 -13 -13 -12 -12 -11 -11 -12 -12 -12 -12 -11 -11 -10 -11 -10 -11 -11 -11 -11 -11
-25 -25 -26 -27 -27 -26 -27 -27 -27 -26 -26 -26 -26 -26 -25 -24 -23 -22 -22 -21 -20 -19 -16 -14 -13 -13 -13 -13 -12 -12 -12 -12 -12 -12 -11 -10 -10 -10 -11 -11 -11 -11 -11 -11 -10
-25 -25 -26 -27 -27 -26 -27 -27 -26 -26 -26 -27 -26 -25 -25 -24 -23 -22 -22 -22 -21 -20 -17 -16 -13 -14 -14 -11 -12 -11 -11 -11 -12 -12 -11 -10 -10 -11 -11 -12 -11 -11 -11 -10 -11
-26 -26 -26 -27 -27 -27 -27 -27 -27 -27 -27 -26 -27 -26 -25 -24 -23 -22 -22 -21 -21 -20 -18 -17 -15 -14 -12 -12 -12 -12 -12 -12 -12 -11 -11 -11 -10 -10 -11 -11 -12 -12 -11 -10 -11
-25 -26 -26 -26 -27 -27 -27 -27 -27 -26 -26 -27 -26 -26 -25 -25 -24 -23 -22 -22 -21 -20 -19 -17 -16 -15 -14 -13 -12 -12 -12 -11 -12 -12 -11 -10 -11 -11 -12 -12 -11 -11 -11 -10 -11
-25 -25 -26 -26 -27 -27 -27 -27 -27 -27 -27 -26 -26 -26 -25 -25 -25 -23 -22 -21 -21 -21 -20 -17 -15 -14 -13 -12 -11 -11 -12 -12 -12 -11 -10 -10 -12 -12 -12 -12 -11 -11 -11 -11 -12
-25 -25 -25 -26 -26 -26 -26 -26 -26 -26 -27 -27 -27 -26 -25 -25 -24 -24 -23 -21 -20 -20 -19 -16 -16 -14 -13 -13 -12 -12 -12 -12 -11 -11 -10 -11 -12 -12 -12 -12 -11 -11 -11 -12 -12
-25 -25 -25 -26 -26 -26 -26 -26 -26 -26 -26 -26 -26 -26 -26 -25 -25 -25 -24 -21 -21 -20 -18 -17 -16 -15 -14 -13 -13 -12 -12 -11 -12 -11 -11 -11 -12 -12 -12 -11 -11 -11 -11 -11 -11
-25 -25 -25 -25 -25 -26 -26 -26 -26 -27 -27 -26 -26 -26 -26 -25 -25 -24 -23 -22 -21 -20 -19 -18 -17 -15 -15 -14 -13 -12 -12 -11 -11 -11 -11 -11 -12 -13 -12 -12 -11 -11 -12 -12 -11